Regional Weather Roundup
Issued by NWS Columbia, SC

Home | Current Version | Previous Version | Text Only | Print | Product List | Glossary On
Versions: 1 2 3 4 5 6 7 8 9 10 11 12 13 14 15 16 17 18 19 20 21 22 23 24 25 26 27 28 29 30 31 32 33 34 35 36 37 38 39 40 41 42 43 44 45 46 47 48 49 50
000
ASUS42 KCAE 210810
RWRCAE
REGIONAL WEATHER ROUNDUP
NATIONAL WEATHER SERVICE COLUMBIA SC
300 AM EST SUN DEC 21 2014

NOTE: "FAIR" INDICATES FEW OR NO CLOUDS BELOW 12,000 FEET WITH NO
SIGNIFICANT WEATHER AND/OR OBSTRUCTIONS TO VISIBILITY.

NOT ALL STATIONS ARE QUALITY CONTROLLED BY THE NATIONAL
WEATHER SERVICE. USE DATA WITH CAUTION...ESPECIALLY
DEWPOINT OBSERVATIONS.

SCZ001>056-GAZ040-063>065-077-210900-
...UPSTATE SOUTH CAROLINA...

CITY           SKY/WX    TMP DP  RH WIND       PRES   REMARKS
ANDERSON       CLOUDY    43  40  89 NE6       30.23R
LIBERTY        CLOUDY    42  39  91 MISG      30.22S FOG
SPARTANBURG    MOCLDY    45  41  87 CALM      30.24R
CLEMSON        CLOUDY    44  39  82 NE5       30.23S HAZE
GREENVILLE     CLOUDY    42  38  85 NE6       30.24R
GREENWOOD      CLOUDY    43  40  89 NE3       30.24S
GREER          CLOUDY    42  39  89 NE3       30.22S
ROCK HILL      CLOUDY    41  35  79 CALM      30.25S
CHESTER        CLOUDY    43  37  81 NE5       30.25S
LAURENS        CLOUDY    41  41 100 NE3       30.23S


...CENTRAL SOUTH CAROLINA...

CITY           SKY/WX    TMP DP  RH WIND       PRES   REMARKS
COLUMBIA APT   CLOUDY    46  38  73 NE3       30.23S
COLUMBIA OWENS CLOUDY    45  38  76 VRB3      30.24F
DARLINGTON     CLEAR     37  30  75 N7        30.26F WCI  32
FLORENCE       CLOUDY    39  37  92 N9        30.24F FOG     WCI  33
MCENTIRE ANGB  CLOUDY    43  38  85 NE6       30.23S
ORANGEBURG     CLOUDY    45  40  82 NE7       30.22R
NEWBERRY       CLOUDY    41 N/A N/A CALM      30.26S
AIKEN          CLOUDY    45  43  93 N7        30.23F
BARNWELL       CLOUDY    46  45  93 NE7       30.22R
CAMDEN         CLOUDY    39  37  93 NE5       30.25S FOG
LANCASTER      CLOUDY    39  39 100 CALM      30.25F
WINNSBORO      CLOUDY    41  39  93 NE7       30.23S


...EASTERN AND COASTAL SOUTH CAROLINA...

CITY           SKY/WX    TMP DP  RH WIND       PRES   REMARKS
MYRTLE BEACH   CLOUDY    43  36  75 N10       30.21F
N MYRTLE BCH   CLOUDY    41  37  86 N9        30.21F
CONWAY         CLOUDY    41  41 100 N3        30.23R FOG
MARION         PTSUNNY   39  37  93 N7        30.25S FOG     WCI  34
HARTSVILLE     FAIR      37  37 100 N3        30.25F
FLORENCE       CLOUDY    39  37  92 N9        30.24F FOG     WCI  33
DARLINGTON     CLEAR     37  30  75 N7        30.26F WCI  32
CHARLESTON APT CLOUDY    46  44  93 N6        30.20R
MOUNT PLEASANT LGT RAIN  45  45 100 N3        30.18F
WALTERBORO     CLOUDY    46 N/A N/A NE5       30.20F
BEAUFORT       CLOUDY    49  47  93 N7        30.19S


...EASTERN GEORGIA...

CITY           SKY/WX    TMP DP  RH WIND       PRES   REMARKS
AUGUSTA BUSH F CLOUDY    47  44  90 N6        30.22R
AUGUSTA DANIEL CLOUDY    47  45  93 N5        30.22R
THOMSON        CLOUDY    49  49 100 NE3       30.25S
WASHINGTON     FOG       46 N/A N/A CALM      30.21S VSB 3/4
CLAXTON        CLOUDY    50  50 100 N5        30.18S
SYLVANIA       CLOUDY    48  48 100 NE7       30.19F FOG
STATESBORO     CLOUDY    49  49 100 NE5       30.18F FOG
SAVANNAH       CLOUDY    50  47  89 NE9       30.18S


...SOUTHERN NORTH CAROLINA...

CITY           SKY/WX    TMP DP  RH WIND       PRES   REMARKS
CHARLOTTE      CLOUDY    42  33  70 E3        30.25S
MONROE         CLOUDY    40  35  83 NE6       30.24F
WADESBORO      CLOUDY    32  32  98 CALM      30.26F FOG
ROCKINGHAM     MOSUNNY   34  33  96 CALM      30.25F FOG
RUTHERFORDTON  CLOUDY    40  40 100 CALM      30.24S FOG
ASHEVILLE      FOG       39  38  96 CALM      30.20S VSB 3/4

$$


USA.gov is the U.S. government's official web portal to all federal, state and local government web resources and services.